User: anonymous   Login
Location: Theydon Bois
(51.6750°N, 0.1050°E)
Time: 21:51:28
(UTC+01:00)
Language:

SL-08 R/B - Orbit

View from above orbital plane
View from above orbital plane
View from above satellite
View from above satellite

Ground track
Ground track

The orbit data is extracted from the following two-line orbital elements,

1 27819U 03023B   17295.91428919 +.00000036 +00000-0 +21232-4 0  9995
2 27819 082.9443 290.3072 0047802 067.5422 354.9626 13.74200272721282
Epoch (UTC): 22 October 2017 21:56:34
Eccentricity: 0.0047802
inclination: 82.9443°
perigee height: 949 km
apogee height: 1020 km
right ascension of ascending node: 290.3072°
argument of perigee: 67.5422°
revolutions per day: 13.74200272
mean anomaly at epoch: 354.9626°
orbit number at epoch: 72128

The dashed part of the orbit path shows where the satellite is in the earth's shadow,  

DLR